Temp
-12 -12 -12 -12 -12 -12 -12 -12 -12 -12 -12 -12 -13 -13 -13 -13 -13 -13 -13 -12 -12 -12 -12 -12 -12 -12 -12 -12 -12 -12 -12 -12 -13 -13 -14 -16 -17 -16 -17 -18 -18 -18 -18 -18 -17 -17 -17
-12 -12 -12 -12 -12 -12 -12 -12 -12 -12 -12 -12 -13 -13 -13 -13 -14 -13 -13 -13 -13 -12 -12 -12 -12 -12 -12 -12 -12 -12 -12 -12 -13 -14 -14 -16 -17 -17 -18 -17 -18 -18 -18 -17 -17 -17 -17
-12 -12 -12 -12 -11 -12 -11 -12 -12 -12 -12 -12 -13 -13 -13 -13 -13 -13 -13 -13 -13 -13 -13 -12 -12 -12 -12 -12 -12 -12 -12 -13 -13 -13 -14 -16 -17 -17 -17 -17 -17 -18 -18 -18 -17 -17 -17
-12 -13 -13 -13 -13 -12 -12 -12 -12 -12 -12 -12 -12 -13 -13 -13 -14 -13 -13 -13 -13 -13 -13 -13 -12 -12 -12 -12 -12 -12 -13 -13 -13 -13 -14 -16 -17 -17 -17 -17 -17 -17 -18 -18 -17 -17 -17
-13 -13 -13 -13 -13 -13 -13 -13 -13 -12 -12 -12 -12 -12 -13 -13 -13 -13 -13 -13 -13 -13 -13 -13 -12 -12 -13 -12 -12 -13 -13 -13 -13 -14 -14 -16 -16 -17 -17 -17 -17 -17 -18 -17 -17 -16 -16
-13 -13 -13 -13 -13 -13 -13 -13 -13 -13 -13 -13 -13 -12 -13 -13 -13 -13 -13 -13 -13 -13 -13 -13 -13 -13 -13 -12 -13 -13 -13 -13 -13 -14 -14 -15 -16 -16 -17 -17 -17 -17 -17 -17 -17 -17 -17
-13 -13 -13 -13 -14 -14 -14 -14 -14 -13 -13 -13 -13 -13 -13 -12 -13 -13 -13 -13 -13 -13 -13 -13 -13 -13 -13 -13 -13 -13 -13 -13 -14 -14 -14 -15 -15 -16 -16 -17 -16 -17 -17 -17 -17 -17 -16
-13 -14 -14 -14 -14 -14 -14 -14 -14 -14 -14 -14 -14 -13 -13 -13 -13 -14 -13 -13 -13 -13 -13 -13 -12 -13 -13 -13 -13 -13 -13 -13 -14 -14 -14 -15 -15 -15 -16 -16 -16 -16 -17 -17 -17 -17 -16
-13 -13 -14 -14 -14 -14 -14 -15 -15 -15 -14 -14 -14 -14 -14 -14 -13 -14 -14 -13 -14 -13 -13 -13 -12 -13 -13 -13 -13 -13 -13 -13 -14 -14 -14 -15 -15 -15 -16 -16 -16 -16 -17 -16 -17 -16 -17
-14 -14 -14 -15 -15 -16 -16 -16 -16 -15 -15 -15 -15 -15 -14 -14 -14 -14 -14 -14 -14 -13 -13 -13 -13 -13 -13 -13 -13 -13 -13 -13 -14 -14 -15 -15 -15 -15 -16 -16 -16 -16 -16 -16 -16 -17 -16
-15 -15 -15 -16 -17 -17 -17 -17 -17 -16 -16 -16 -16 -16 -15 -14 -15 -15 -15 -15 -14 -14 -13 -13 -12 -13 -14 -13 -13 -14 -14 -13 -14 -14 -15 -15 -15 -15 -16 -15 -16 -16 -16 -16 -16 -16 -16
-19 -18 -17 -17 -16 -16 -18 -18 -18 -17 -17 -17 -17 -16 -16 -15 -16 -16 -16 -16 -15 -14 -12 -13 -13 -13 -13 -13 -14 -14 -13 -14 -14 -14 -15 -15 -15 -15 -16 -15 -15 -15 -15 -15 -15 -16 -15
-19 -20 -20 -20 -20 -19 -17 -16 -18 -18 -18 -18 -18 -17 -17 -17 -18 -16 -17 -16 -16 -13 -14 -14 -14 -14 -14 -14 -14 -14 -13 -14 -14 -14 -15 -16 -15 -15 -15 -15 -15 -15 -15 -15 -15 -15 -15
-20 -20 -20 -20 -20 -21 -21 -19 -17 -18 -18 -18 -18 -18 -17 -17 -19 -18 -18 -17 -15 -13 -14 -15 -15 -15 -15 -14 -14 -14 -14 -14 -14 -14 -15 -15 -15 -15 -16 -15 -15 -15 -15 -15 -15 -15 -15
-21 -22 -21 -21 -21 -21 -21 -21 -20 -19 -18 -18 -19 -18 -18 -18 -20 -20 -19 -16 -13 -13 -15 -15 -15 -15 -15 -15 -14 -14 -14 -14 -14 -14 -14 -15 -16 -16 -16 -15 -15 -15 -15 -15 -15 -15 -16
-22 -21 -22 -22 -22 -21 -21 -20 -21 -21 -20 -19 -18 -19 -18 -19 -20 -20 -18 -14 -14 -14 -15 -16 -15 -16 -16 -15 -15 -14 -14 -14 -14 -15 -15 -15 -16 -16 -16 -16 -15 -15 -16 -16 -16 -16 -16
-22 -22 -22 -22 -22 -22 -22 -22 -21 -21 -22 -21 -19 -19 -18 -20 -20 -20 -16 -13 -14 -14 -16 -16 -17 -15 -16 -16 -15 -15 -15 -15 -15 -15 -15 -15 -16 -16 -16 -16 -16 -16 -16 -17 -16 -16 -15
-23 -23 -23 -23 -22 -22 -22 -22 -22 -21 -21 -23 -21 -19 -18 -20 -20 -19 -15 -13 -14 -15 -17 -16 -17 -17 -16 -17 -16 -15 -15 -15 -15 -15 -15 -15 -16 -16 -16 -17 -16 -16 -16 -16 -16 -16 -15
-24 -24 -25 -25 -24 -23 -23 -22 -23 -22 -21 -21 -22 -21 -19 -21 -20 -18 -15 -14 -15 -15 -16 -16 -17 -17 -17 -17 -17 -16 -16 -16 -15 -15 -15 -15 -15 -16 -17 -17 -17 -16 -16 -17 -16 -16 -15
-26 -26 -25 -25 -25 -25 -23 -23 -23 -23 -22 -22 -22 -23 -22 -22 -19 -18 -17 -15 -14 -15 -17 -17 -17 -17 -18 -17 -17 -16 -16 -16 -16 -16 -15 -16 -16 -16 -16 -17 -18 -17 -17 -17 -17 -16 -16
-26 -25 -25 -26 -26 -26 -24 -23 -23 -23 -23 -24 -22 -23 -22 -20 -19 -17 -16 -15 -16 -15 -17 -17 -17 -18 -18 -17 -17 -17 -17 -18 -17 -16 -15 -16 -16 -16 -16 -17 -17 -17 -17 -16 -16 -16 -16
-25 -26 -25 -26 -26 -26 -24 -24 -23 -24 -24 -24 -23 -22 -22 -20 -19 -19 -17 -15 -14 -16 -17 -17 -17 -18 -18 -18 -18 -18 -18 -18 -17 -17 -16 -17 -17 -16 -16 -17 -17 -17 -17 -17 -17 -16 -16
-26 -26 -26 -26 -26 -26 -24 -23 -24 -24 -24 -22 -22 -22 -22 -21 -20 -19 -17 -15 -14 -16 -17 -17 -18 -19 -20 -19 -19 -18 -18 -18 -17 -17 -17 -17 -17 -17 -17 -17 -18 -16 -16 -17 -17 -16 -16
-28 -26 -26 -26 -26 -26 -24 -24 -24 -24 -23 -22 -22 -22 -21 -21 -21 -19 -17 -16 -16 -16 -18 -18 -18 -20 -19 -20 -19 -18 -18 -18 -17 -17 -17 -17 -17 -17 -17 -18 -17 -16 -17 -17 -16 -16 -16
-27 -27 -26 -27 -26 -26 -24 -24 -24 -23 -24 -23 -24 -24 -22 -22 -21 -20 -19 -17 -17 -17 -18 -19 -19 -19 -19 -20 -19 -19 -17 -18 -18 -17 -17 -18 -18 -18 -17 -17 -17 -16 -16 -17 -16 -15 -16
-27 -27 -27 -27 -27 -25 -24 -24 -24 -24 -24 -24 -25 -25 -24 -22 -21 -21 -19 -18 -17 -17 -18 -18 -19 -19 -20 -20 -20 -19 -18 -18 -18 -18 -18 -18 -17 -18 -17 -17 -16 -16 -16 -16 -16 -15 -17
-28 -28 -27 -26 -25 -24 -24 -24 -24 -24 -24 -24 -24 -25 -24 -22 -21 -21 -20 -18 -18 -18 -18 -18 -19 -20 -20 -20 -19 -20 -18 -18 -18 -17 -18 -18 -18 -17 -17 -17 -16 -16 -17 -17 -16 -16 -16
-27 -26 -26 -25 -24 -24 -24 -24 -24 -24 -24 -24 -24 -25 -25 -22 -21 -21 -21 -20 -19 -18 -18 -19 -20 -20 -19 -19 -19 -18 -18 -17 -17 -17 -17 -18 -17 -17 -17 -17 -16 -17 -17 -17 -17 -16 -15
-26 -26 -25 -25 -24 -24 -24 -24 -24 -24 -24 -24 -24 -24 -25 -24 -23 -22 -21 -20 -19 -19 -20 -19 -19 -20 -19 -19 -18 -18 -18 -17 -17 -17 -17 -18 -17 -17 -17 -17 -17 -17 -17 -17 -17 -16 -16
Height
5756 5758 5760 5763 5765 5768 5769 5771 5774 5776 5778 5779 5781 5784 5786 5787 5789 5790 5792 5793 5795 5796 5797 5798 5798 5797 5796 5795 5793 5790 5787 5784 5779 5775 5770 5766 5764 5761 5760 5759 5759 5759 5759 5761 5763 5765 5766
5745 5747 5750 5751 5753 5756 5759 5761 5763 5766 5768 5770 5772 5774 5778 5778 5781 5782 5783 5785 5787 5790 5790 5792 5792 5792 5791 5790 5788 5786 5784 5780 5776 5773 5768 5764 5763 5760 5760 5759 5760 5759 5759 5761 5763 5765 5765
5729 5732 5735 5738 5740 5742 5745 5748 5751 5754 5756 5759 5762 5764 5767 5771 5771 5774 5775 5777 5779 5782 5784 5785 5786 5786 5786 5785 5783 5782 5780 5777 5774 5770 5766 5762 5762 5760 5758 5758 5759 5759 5759 5760 5761 5762 5763
5714 5717 5720 5723 5726 5729 5732 5736 5738 5742 5746 5749 5752 5754 5758 5760 5763 5765 5766 5768 5770 5774 5777 5779 5780 5780 5780 5779 5778 5778 5776 5774 5770 5768 5763 5760 5760 5759 5758 5758 5758 5758 5759 5760 5761 5761 5762
5698 5701 5704 5708 5710 5715 5718 5722 5726 5730 5733 5737 5741 5744 5747 5750 5753 5756 5760 5761 5763 5765 5769 5772 5774 5773 5774 5774 5773 5773 5772 5770 5767 5765 5761 5759 5758 5758 5758 5757 5757 5758 5758 5759 5760 5760 5760
5682 5685 5688 5691 5694 5699 5702 5706 5711 5715 5720 5724 5729 5733 5736 5740 5744 5745 5751 5753 5753 5756 5760 5764 5766 5768 5768 5768 5768 5768 5767 5766 5763 5762 5759 5757 5757 5756 5755 5756 5756 5757 5758 5759 5760 5760 5760
5663 5666 5670 5673 5676 5682 5687 5691 5696 5699 5704 5709 5714 5719 5724 5728 5731 5736 5740 5745 5747 5747 5751 5756 5758 5759 5761 5762 5763 5763 5763 5762 5759 5759 5756 5755 5756 5754 5753 5755 5754 5755 5757 5758 5758 5759 5761
5643 5645 5649 5653 5658 5662 5668 5674 5680 5685 5689 5694 5698 5705 5710 5715 5720 5726 5728 5732 5738 5737 5742 5746 5747 5751 5752 5755 5757 5758 5758 5758 5756 5755 5753 5753 5752 5752 5751 5752 5753 5751 5754 5756 5756 5758 5759
5619 5623 5628 5631 5636 5642 5648 5655 5662 5669 5674 5679 5685 5690 5696 5703 5709 5713 5718 5721 5726 5728 5733 5739 5738 5742 5744 5748 5750 5753 5753 5753 5752 5751 5750 5749 5750 5749 5749 5748 5750 5750 5752 5754 5754 5756 5757
5591 5595 5600 5607 5614 5621 5627 5635 5644 5652 5659 5665 5671 5676 5682 5690 5697 5700 5705 5711 5716 5719 5724 5732 5730 5733 5735 5740 5743 5745 5748 5749 5748 5748 5747 5747 5747 5747 5746 5746 5748 5749 5751 5753 5752 5753 5755
5562 5566 5571 5578 5586 5595 5606 5614 5623 5633 5642 5649 5656 5662 5669 5676 5683 5687 5694 5699 5705 5712 5716 5721 5722 5724 5729 5735 5740 5740 5742 5742 5744 5743 5744 5745 5744 5744 5744 5744 5746 5748 5748 5751 5752 5752 5754
5536 5539 5543 5549 5556 5566 5580 5592 5603 5613 5624 5633 5640 5648 5655 5664 5671 5674 5681 5687 5694 5702 5706 5711 5714 5717 5723 5727 5730 5732 5735 5738 5739 5739 5740 5740 5741 5741 5741 5743 5743 5744 5746 5747 5748 5750 5752
5519 5522 5524 5526 5531 5537 5549 5564 5580 5593 5605 5616 5624 5633 5642 5650 5659 5662 5667 5676 5684 5689 5699 5704 5707 5711 5715 5720 5723 5725 5730 5733 5734 5735 5736 5736 5737 5738 5738 5742 5742 5742 5743 5745 5747 5748 5750
5500 5503 5506 5510 5515 5520 5525 5534 5548 5566 5582 5596 5607 5615 5627 5638 5645 5647 5655 5663 5670 5680 5689 5694 5698 5700 5707 5712 5714 5718 5722 5726 5729 5730 5730 5732 5733 5734 5736 5738 5740 5740 5741 5742 5743 5745 5748
5480 5483 5487 5491 5497 5504 5508 5516 5522 5536 5554 5572 5585 5597 5610 5623 5630 5633 5642 5648 5661 5670 5680 5685 5689 5693 5700 5704 5707 5712 5717 5722 5724 5725 5726 5727 5728 5729 5731 5733 5736 5736 5738 5740 5740 5741 5744
5457 5460 5465 5472 5478 5485 5493 5501 5507 5516 5528 5543 5560 5578 5595 5606 5613 5618 5626 5639 5651 5661 5668 5676 5680 5686 5693 5697 5701 5705 5710 5717 5719 5720 5721 5723 5723 5725 5727 5729 5730 5733 5735 5736 5737 5739 5740
5428 5432 5440 5448 5456 5465 5474 5483 5491 5499 5509 5520 5533 5551 5579 5586 5593 5599 5613 5629 5640 5649 5656 5664 5671 5676 5683 5689 5695 5699 5706 5711 5713 5714 5716 5717 5719 5721 5722 5725 5726 5728 5730 5732 5733 5734 5735
5395 5401 5408 5418 5430 5444 5455 5465 5475 5481 5492 5499 5514 5530 5556 5560 5571 5585 5606 5621 5630 5638 5648 5653 5662 5670 5675 5681 5687 5692 5697 5704 5706 5708 5712 5713 5714 5715 5718 5720 5722 5724 5725 5727 5728 5731 5732
5362 5370 5378 5387 5402 5418 5435 5447 5457 5466 5472 5484 5498 5519 5527 5535 5551 5577 5601 5608 5616 5629 5639 5645 5654 5660 5666 5673 5679 5684 5691 5697 5699 5702 5707 5707 5708 5710 5712 5715 5717 5720 5722 5722 5724 5726 5727
5330 5343 5356 5368 5379 5395 5413 5428 5440 5449 5457 5466 5482 5493 5497 5520 5552 5573 5583 5595 5605 5617 5628 5634 5644 5650 5659 5666 5671 5678 5684 5689 5691 5695 5699 5698 5702 5704 5708 5712 5714 5715 5717 5718 5719 5720 5722
5307 5319 5333 5346 5359 5376 5393 5411 5423 5434 5443 5450 5457 5474 5491 5510 5529 5562 5572 5585 5594 5608 5619 5625 5634 5641 5650 5658 5663 5671 5678 5681 5685 5689 5691 5692 5696 5700 5702 5704 5706 5708 5710 5711 5713 5715 5715
5285 5298 5312 5326 5341 5357 5377 5393 5407 5421 5430 5437 5445 5465 5486 5509 5537 5538 5554 5571 5584 5597 5610 5618 5626 5636 5643 5650 5658 5663 5668 5673 5677 5681 5684 5686 5690 5694 5697 5698 5699 5701 5703 5704 5706 5708 5709
5257 5275 5293 5309 5325 5343 5362 5381 5395 5410 5420 5429 5440 5461 5480 5503 5510 5523 5548 5564 5574 5588 5601 5609 5618 5626 5634 5645 5650 5654 5659 5665 5671 5674 5677 5680 5684 5688 5690 5693 5693 5694 5697 5700 5700 5702 5702
5228 5254 5275 5295 5313 5333 5352 5371 5386 5403 5416 5427 5434 5450 5467 5482 5495 5521 5536 5552 5564 5579 5595 5602 5612 5618 5629 5634 5641 5647 5651 5656 5662 5667 5671 5675 5679 5682 5683 5685 5684 5692 5693 5694 5694 5697 5695
5224 5245 5265 5284 5305 5326 5346 5365 5382 5398 5411 5420 5432 5441 5454 5470 5494 5514 5524 5537 5548 5564 5582 5593 5603 5613 5620 5626 5631 5638 5643 5648 5654 5660 5664 5669 5674 5675 5675 5677 5681 5684 5688 5689 5687 5692 5689
5228 5245 5262 5283 5305 5324 5344 5362 5379 5394 5406 5418 5428 5435 5445 5463 5485 5503 5512 5525 5537 5552 5570 5581 5592 5601 5608 5615 5621 5627 5633 5640 5646 5650 5656 5662 5667 5668 5668 5669 5672 5680 5681 5681 5681 5685 5680
5238 5253 5272 5291 5308 5326 5345 5362 5378 5393 5406 5416 5424 5429 5435 5448 5471 5487 5501 5516 5527 5539 5558 5571 5582 5591 5599 5606 5611 5617 5624 5631 5637 5643 5649 5655 5659 5660 5663 5663 5667 5673 5673 5674 5674 5677 5674
5254 5268 5283 5298 5314 5331 5348 5364 5379 5393 5403 5412 5419 5424 5430 5443 5467 5478 5492 5505 5516 5528 5548 5561 5572 5580 5590 5596 5600 5607 5613 5621 5629 5637 5641 5648 5653 5655 5657 5657 5659 5666 5665 5665 5667 5665 5665
5270 5282 5294 5307 5321 5336 5352 5367 5380 5391 5400 5408 5414 5421 5428 5438 5452 5466 5481 5495 5507 5519 5536 5551 5570 5578 5584 5590 5594 5601 5607 5614 5620 5627 5635 5638 5645 5648 5651 5651 5654 5657 5657 5658 5657 5657 5657
Wind_Speed
59 61 58 55 54 54 51 49 50 49 48 45 43 43 41 39 38 35 34 37 36 32 33 33 32 32 32 32 34 34 35 35 36 36 35 20 20 19 10 11 10 5 13 18 14 11 14
65 64 62 60 58 57 56 53 52 51 50 49 47 45 45 44 43 40 37 37 36 36 34 33 31 31 31 31 33 33 33 34 33 32 30 17 18 16 8 9 7 4 5 12 18 14 11
64 64 63 60 62 60 59 58 56 55 53 52 50 47 47 46 42 44 44 44 36 37 37 33 30 30 31 31 32 32 31 31 31 30 27 14 15 13 10 9 5 5 5 5 6 6 11
64 66 66 64 63 66 61 60 58 59 58 55 52 49 49 48 46 45 46 42 38 37 36 34 30 31 31 31 32 32 30 30 29 28 25 12 11 6 10 13 10 3 3 6 6 8 7
63 63 63 63 62 63 64 63 63 61 61 60 58 54 50 48 45 43 45 42 41 41 40 37 35 33 31 30 32 31 27 27 27 25 20 11 9 5 7 12 9 5 5 7 9 7 4
69 68 66 66 62 62 61 60 62 63 63 61 61 60 56 52 49 46 47 43 42 43 43 40 38 37 32 29 31 30 26 25 25 22 16 11 8 6 6 10 6 5 6 5 8 4 5
74 75 74 71 69 66 64 61 61 61 63 62 62 61 60 59 54 49 45 46 41 37 39 43 38 38 35 31 32 28 26 23 23 20 14 10 8 6 6 9 6 6 6 4 12 4 5
83 81 80 79 76 73 69 66 64 62 62 63 62 63 62 60 60 53 46 44 44 39 37 37 36 36 40 34 31 28 25 22 21 19 14 12 8 7 6 9 12 8 9 8 6 7 10
91 90 88 85 83 80 77 71 68 65 63 63 64 63 61 60 59 57 50 48 44 41 39 33 33 31 37 30 29 25 24 22 19 19 15 13 10 9 9 8 12 12 12 13 10 10 10
101 100 98 94 90 85 82 78 72 68 66 63 62 61 61 61 57 55 50 47 46 43 40 32 33 32 37 30 30 28 24 22 19 18 14 13 12 11 8 5 10 10 11 14 12 9 12
105 106 106 103 98 92 85 81 77 71 68 66 63 60 59 59 56 51 51 45 44 43 42 32 31 32 34 30 24 24 23 22 19 18 15 15 14 11 9 3 4 11 16 16 15 14 12
62 67 73 81 92 96 92 85 81 76 71 67 65 62 59 57 54 51 50 43 42 42 44 33 30 28 32 30 30 29 26 23 21 17 13 12 14 12 10 11 8 12 16 18 15 15 14
64 63 58 56 61 70 79 88 85 81 75 70 67 64 60 57 50 53 50 45 44 45 39 36 32 28 29 30 32 32 26 22 18 15 11 15 17 15 10 15 9 12 17 16 14 14 13
55 60 61 62 60 52 67 73 77 84 82 74 71 67 63 59 52 55 52 49 48 45 38 36 36 30 27 29 34 32 28 25 19 15 17 16 17 17 15 15 14 14 16 18 16 13 11
59 59 59 60 62 59 50 61 80 83 84 81 75 72 67 61 55 56 55 55 47 42 39 37 39 35 31 33 32 30 27 21 19 17 17 15 17 19 20 19 18 17 18 19 20 17 16
70 71 65 64 62 62 59 53 62 85 85 86 82 76 70 64 60 60 60 55 49 41 40 40 39 38 34 35 34 31 28 22 17 16 17 17 19 22 22 22 21 21 23 23 22 20 20
75 77 79 73 68 64 61 56 47 71 85 86 87 82 73 70 66 66 65 55 49 47 43 40 40 38 37 35 34 33 28 23 21 19 18 19 18 23 24 21 22 21 22 22 22 24 22
80 78 76 76 74 69 62 60 56 48 83 84 86 86 78 77 74 71 65 56 52 51 47 43 41 40 36 36 35 32 30 23 21 20 17 19 20 21 22 23 22 24 25 26 27 24 23
75 71 62 64 72 71 65 60 61 52 64 86 86 85 85 82 80 72 65 60 56 51 48 45 45 41 39 38 40 38 32 25 25 23 21 19 18 19 25 27 24 23 28 30 28 26 23
61 65 60 55 60 68 67 61 60 57 51 73 88 89 92 85 77 70 69 64 59 54 50 50 47 44 43 40 39 37 30 25 25 25 24 24 20 20 19 19 22 24 23 27 31 31 26
53 59 60 60 55 67 66 61 61 60 53 59 83 91 91 88 83 71 70 66 63 55 50 50 48 47 44 41 41 37 31 28 26 27 28 27 21 20 20 23 26 27 30 30 31 31 32
56 57 57 54 55 68 66 63 62 61 55 52 68 86 89 84 74 78 75 67 64 58 52 49 48 47 45 42 40 39 35 31 31 31 32 30 25 23 22 22 24 26 27 29 30 29 31
66 62 58 56 54 67 67 63 63 61 56 48 56 72 85 83 83 81 72 68 65 60 54 50 47 43 47 42 41 40 41 37 34 33 33 31 28 25 23 23 25 26 22 19 22 23 23
49 59 56 57 59 67 65 62 60 61 52 43 35 56 84 87 86 77 73 70 67 61 54 51 46 42 41 37 43 43 43 40 39 36 33 32 29 27 28 26 28 13 17 20 18 21 24
40 51 51 56 66 63 63 59 58 56 51 44 35 40 69 85 83 78 77 73 72 66 58 53 47 44 43 39 44 46 40 40 41 38 36 31 27 33 35 31 27 20 16 18 22 15 23
37 45 49 58 58 63 60 56 53 51 48 36 30 31 49 72 82 81 80 77 74 68 62 57 52 49 50 53 47 49 49 45 44 42 38 34 29 32 34 36 29 16 18 20 22 11 19
37 53 55 52 55 59 58 55 51 48 42 36 32 29 45 66 81 83 83 78 77 72 63 61 55 50 49 48 55 49 52 51 45 44 42 36 33 34 33 35 29 21 21 22 23 22 22
44 47 46 47 52 55 53 51 47 44 39 35 31 30 37 64 76 83 83 82 79 75 67 61 57 55 51 52 52 56 51 49 49 40 40 36 36 34 33 35 34 21 25 26 22 22 24
44 40 39 44 51 49 49 48 48 42 38 31 28 27 34 56 71 78 86 82 79 77 70 65 54 52 52 51 53 51 54 53 54 45 43 41 33 33 34 32 30 26 26 25 24 24 25
Wind_Direction
260 263 265 263 266 266 263 262 265 264 264 263 263 265 267 268 266 265 270 267 269 273 278 281 285 288 289 294 297 301 303 310 319 329 333 334 332 336 350 357 355 250 229 229 238 239 249
265 265 265 266 267 266 267 262 258 261 264 264 262 262 265 266 267 263 267 264 273 268 276 279 283 284 287 290 293 298 300 308 319 329 332 329 333 333 331 341 342 329 309 253 248 262 243
264 265 265 262 264 263 262 264 264 260 259 259 261 260 260 264 261 263 263 268 267 268 272 279 278 280 284 288 291 293 298 306 318 327 332 326 330 335 312 338 336 348 328 296 258 272 281
263 265 264 262 259 262 260 260 260 262 263 262 260 259 261 261 262 265 268 263 257 263 267 275 276 278 281 284 288 288 294 301 315 325 333 329 325 317 329 323 330 339 260 247 228 223 245
263 263 263 263 262 260 259 260 260 259 260 261 262 263 259 260 260 262 267 269 259 260 261 269 271 274 275 278 281 282 289 298 311 320 335 339 322 286 302 309 318 319 279 236 227 170 130
265 264 262 263 260 259 258 256 256 257 258 259 260 262 264 263 261 259 264 266 264 264 259 262 263 268 270 270 273 277 283 295 308 318 331 335 338 294 268 299 309 327 298 220 212 174 156
266 267 266 263 261 259 258 257 254 252 254 255 256 257 259 263 265 263 263 264 262 260 262 263 273 257 263 267 268 271 279 291 301 311 318 312 317 333 266 274 265 292 264 274 214 212 294
264 264 264 264 263 260 257 254 253 251 250 252 253 255 255 256 261 264 260 261 262 259 263 258 268 258 255 258 261 266 272 284 293 301 309 303 328 316 291 274 259 243 245 245 262 242 270
262 261 260 259 259 258 256 252 248 248 248 248 250 251 253 255 257 263 261 259 260 261 259 261 266 260 251 244 252 259 264 278 286 293 302 294 310 304 293 280 249 238 237 242 244 242 236
261 261 260 258 255 253 253 252 248 245 245 245 247 248 249 251 253 258 259 257 256 259 264 259 260 252 243 238 244 250 260 270 278 281 288 278 285 304 303 273 249 235 231 246 243 243 212
264 261 260 257 257 254 249 248 248 243 242 242 243 244 246 246 248 249 254 251 253 257 260 256 252 246 231 238 239 247 248 258 269 274 276 270 269 285 282 213 258 231 227 242 251 242 228
269 268 266 265 263 259 253 247 244 244 239 239 240 240 241 243 245 242 246 244 245 248 250 248 247 241 229 230 237 243 247 254 258 273 275 260 257 266 264 245 242 234 240 252 252 261 245
268 267 267 267 256 249 252 252 245 242 240 237 236 236 237 237 236 239 237 236 238 242 241 241 236 230 226 229 236 241 244 249 254 266 264 248 244 249 263 234 227 240 224 237 248 247 250
264 264 263 260 259 261 242 233 236 236 237 235 234 233 232 233 231 234 233 230 234 240 232 235 232 227 218 220 229 232 234 241 252 263 258 255 250 243 233 234 224 227 231 229 239 246 253
267 265 263 259 255 250 251 242 226 222 226 231 230 230 230 229 226 228 229 232 234 232 226 226 227 222 217 220 225 231 235 240 240 250 255 252 245 239 232 235 232 224 230 235 242 251 256
271 263 261 262 257 248 242 245 237 224 219 221 225 227 226 226 222 224 227 229 229 223 223 222 226 216 215 221 229 233 236 239 241 244 247 249 238 234 236 236 234 228 226 237 249 251 258
266 264 262 256 255 249 240 233 236 229 223 218 217 220 221 224 220 221 225 224 224 222 218 216 223 222 211 218 225 232 235 233 239 238 240 247 242 235 231 234 233 223 225 229 237 243 251
268 264 258 248 244 242 238 231 228 232 225 225 215 214 216 219 218 222 222 221 221 223 216 214 216 218 219 216 224 222 227 232 238 239 236 241 238 233 235 230 233 231 220 226 238 246 255
263 259 246 239 231 230 233 227 226 225 226 226 218 213 212 213 218 219 220 221 220 220 218 216 214 218 216 218 224 227 231 228 238 236 236 241 239 234 230 231 237 239 239 235 239 251 263
248 239 235 236 234 220 223 223 221 222 227 224 223 213 213 210 216 218 222 219 219 219 216 215 215 216 215 215 220 224 221 226 240 234 236 235 235 239 234 238 245 240 238 248 251 251 261
243 236 235 234 231 217 212 218 218 219 224 223 221 217 215 209 211 213 216 216 223 214 215 218 211 212 214 214 216 218 223 227 232 234 237 237 240 245 235 231 235 237 240 247 252 259 259
239 232 229 227 228 209 204 210 212 214 220 225 224 219 216 210 209 213 214 214 217 214 213 216 213 208 216 214 215 218 221 217 222 225 233 234 240 242 238 234 240 245 248 252 260 265 267
234 228 222 217 215 203 199 205 207 209 217 224 224 220 217 210 207 210 211 214 216 216 212 211 214 216 216 218 217 223 218 215 222 224 230 232 238 242 239 242 243 247 255 264 267 267 270
221 213 208 206 204 198 196 202 202 207 217 226 232 216 214 212 210 206 210 214 217 217 217 218 214 215 207 214 216 218 226 218 221 224 230 237 238 237 241 241 243 252 242 255 263 272 276
192 197 200 198 192 193 193 196 199 205 212 220 224 215 211 214 210 206 208 212 216 218 213 218 218 217 213 213 217 216 220 224 223 224 228 233 235 245 250 248 251 238 244 264 258 275 284
181 180 182 173 186 189 188 189 192 201 205 213 213 218 208 212 211 208 208 211 215 215 212 213 215 216 217 214 221 222 223 226 226 231 233 235 235 242 246 248 248 247 254 265 272 291 285
160 162 164 176 183 181 182 184 189 196 201 209 213 225 211 205 208 209 209 209 214 216 211 213 213 216 220 223 221 218 220 224 228 230 236 239 241 247 253 256 254 254 262 269 269 282 293
158 156 166 173 170 174 179 181 185 193 200 206 211 217 212 203 205 210 210 211 212 216 213 213 212 215 218 222 227 224 222 221 224 230 236 242 246 250 255 260 256 252 261 268 276 287 290
151 152 159 165 166 172 173 175 186 194 199 202 211 217 210 198 194 210 210 211 214 217 219 216 212 216 225 227 233 232 231 231 227 223 235 241 246 259 264 271 265 251 257 267 273 281 286